Location: Newark
(35.5300°N, 14.3000°E)
Time: 20:46:04
(UTC+00:00)

S-56A Canister/Altair - Pass Details

Date: 19 November 2019
Orbit: 632 x 2500 km, 38.9° (Epoch: 14 December)

Event Time Altitude Azimuth Distance (km) Brightness Sun altitude
Rises 19:33:17 0° 284° (WNW) 4,157 12.0 -44.4°
Reaches altitude 10° 19:36:36 10° 286° (WNW) 2,908 11.0 -45.1°
Enters shadow 19:38:39 19° 288° (WNW) 2,131 10.2 -45.5°
